Weather History for Westerly, RI

Change the Weather History Date:

Sunday, December 23, 2012

  Actual Average (KGON) Record (KGON)
Temperature  
Mean Temperature 37 °F -  
Max Temperature 39 °F 40 °F 57 °F (2006)
Min Temperature 35 °F 24 °F 0 °F (1989)
Degree Days  
Heating Degree Days 28    
Moisture  
Dew Point 22 °F    
Average Humidity 55    
Maximum Humidity 73    
Minimum Humidity 46    
Precipitation  
Precipitation 0.00 in - - ()
Sea Level Pressure  
Sea Level Pressure 29.86 in    
Wind  
Wind Speed 7 mph (West)    
Max Wind Speed 12 mph    
Max Gust Speed 24 mph    
Visibility 10 miles    
Events      
Averages and records for this station are not official NWS values.
T = Trace of Precipitation, MM = Missing Value Source: NWS Daily Summary

Daily Weather History Graph

Daily Weather History Graph

Search for Another Location

Airport:

Trip Planner

Search our weather history database for the weather conditions in past years. The results will help you decide how hot, cold, wet, or windy it might be!

Date:

Astronomy

Dec. 23, 2012 Rise Set
Actual Time 7:10 AM EST 4:22 PM EST
Civil Twilight 6:39 AM EST 4:53 PM EST
Nautical Twilight 6:04 AM EST 5:28 PM EST
Astronomical Twilight 5:31 AM EST 6:02 PM EST
Moon 1:12 PM EST (12/23) 2:49 AM EST (12/23)
Length of Visible Light 10h 14m
Length of Day
9h 11m
Waxing Gibbous, 81% of the Moon is Illuminated
Dec 23
Waxing Gibbous
Dec 28
Full
Jan 4
Last Quarter
Jan 11
New
Jan 18
First Quarter

Hourly Weather History & Observations

Time (EST) Temp. Windchill Dew Point Humidity Pressure Visibility Wind Dir Wind Speed Gust Speed Precip Events Conditions
12:53 AM 36.0 °F 30.3 °F 19.0 °F 50% 29.75 in 10.0 mi Variable 6.9 mph 17.3 mph N/A   Overcast
1:53 AM 36.0 °F 31.1 °F 19.9 °F 52% 29.77 in 10.0 mi Variable 5.8 mph - N/A   Overcast
2:53 AM 36.0 °F 30.3 °F 19.9 °F 52% 29.80 in 10.0 mi West 6.9 mph - N/A   Overcast
3:53 AM 35.1 °F 30.1 °F 19.9 °F 54% 29.81 in 10.0 mi Variable 5.8 mph - N/A   Overcast
4:53 AM 36.0 °F 28.0 °F 21.0 °F 55% 29.82 in 10.0 mi West 11.5 mph 19.6 mph N/A   Mostly Cloudy
5:53 AM 36.0 °F 28.0 °F 21.9 °F 57% 29.86 in 10.0 mi West 11.5 mph 19.6 mph N/A   Mostly Cloudy
6:53 AM 36.0 °F 29.0 °F 21.9 °F 57% 29.88 in 10.0 mi West 9.2 mph 24.2 mph N/A   Mostly Cloudy
7:53 AM 36.0 °F 28.0 °F 21.9 °F 57% 29.90 in 10.0 mi WSW 11.5 mph 18.4 mph N/A   Scattered Clouds
8:53 AM 37.0 °F 31.0 °F 21.9 °F 54% 29.91 in 10.0 mi West 8.1 mph - N/A   Overcast
9:53 AM 37.9 °F 32.1 °F 21.9 °F 53% 29.93 in 10.0 mi West 8.1 mph 16.1 mph N/A   Overcast
10:53 AM 39.9 °F 35.8 °F 21.9 °F 49% 29.90 in 10.0 mi Variable 5.8 mph - N/A   Mostly Cloudy
12:53 PM 37.9 °F 32.7 °F 23.0 °F 55% 29.86 in 10.0 mi WSW 6.9 mph 16.1 mph N/A   Mostly Cloudy
1:53 PM 39.0 °F 34.8 °F 23.0 °F 53% 29.84 in 10.0 mi West 5.8 mph - N/A   Overcast
2:53 PM 39.9 °F 32.9 °F 23.0 °F 51% 29.84 in 10.0 mi WSW 11.5 mph 17.3 mph N/A   Clear
3:53 PM 39.0 °F 31.8 °F 26.1 °F 60% 29.84 in 10.0 mi WSW 11.5 mph 18.4 mph N/A   Clear
4:53 PM 37.9 °F 33.5 °F 26.1 °F 62% 29.85 in 10.0 mi West 5.8 mph - N/A   Clear
5:53 PM 37.0 °F 34.5 °F 26.1 °F 65% 29.86 in 10.0 mi West 3.5 mph - N/A   Clear
6:53 PM 36.0 °F 33.3 °F 28.0 °F 73% 29.88 in 10.0 mi WNW 3.5 mph - N/A   Clear
7:53 PM 37.0 °F 34.5 °F 24.1 °F 59% 29.88 in 10.0 mi West 3.5 mph - N/A   Clear
8:53 PM 37.9 °F 34.4 °F 19.0 °F 47% 29.89 in 10.0 mi Variable 4.6 mph - N/A   Clear
9:53 PM 37.0 °F 31.0 °F 18.0 °F 46% 29.91 in 10.0 mi WNW 8.1 mph - N/A   Clear
10:53 PM 37.0 °F 32.4 °F 18.0 °F 46% 29.91 in 10.0 mi WNW 5.8 mph - N/A   Clear
11:53 PM 36.0 °F 31.1 °F 18.0 °F 48% 29.91 in 10.0 mi NW 5.8 mph - N/A   Clear